Погода в Суре

Ливан     33°16′04″N   35°13′16″E
темп.,
°C
ветер,
м/с
пор.,
м/с
влажн.,
%
обл.,
%
осадки,
мм/ч
давл.,
гПа
погр.,
м
10 августа, ср
ср1000:00+25з227622 0.1 1008346
03:00+25з23766 0.3 1007312
06:00+25ююз227941 0.4 1007160
09:00+27з44642 0.5 1007977
12:00+28з446118 0.0 10071018
15:00+28з55600 0.1 10071007
18:00+28з44649 0.0 10061008
21:00+26з447229 0.1 1007570
11 августа, чт
чт1100:00+26юз227362 0.1 1006351
03:00+25зюз337819 0.3 1006290
06:00+26з227215 0.1 1006402
09:00+27зюз336856 0.1 1007763
12:00+28з44647 0.0 1008776
15:00+29зсз54610 0.0 1007816
18:00+27сз55670 0.0 1007740
21:00+26ссз34720 0.0 1007398
12 августа, пт
пт1200:00+25ссз22740 0.0 1008281
03:00+25с22770 0.0 1007269
06:00+24св12800 0.0 1008281
09:00+27ссз22630 0.0 1008664
12:00+28сз43570 0.0 1008659
15:00+28сз54550 0.0 1008683
18:00+27ссз55570 0.0 1007677
21:00+26с23640 0.0 1008318
13 августа, сб
сб1300:00+24с11680 0.0 1008291
03:00+24сз01700 0.0 1008319
06:00+23ююз11730 0.0 1008323
09:00+26з33600 0.0 1008837
12:00+28з54560 0.0 1008743
15:00+28з54600 0.0 1007768
18:00+27зсз44650 0.0 1007794
21:00+26зсз22720 0.0 1007346
14 августа, вс
вс1400:00+25зюз227830 0.0 1007338
03:00+26з237246 0.0 1006636
06:00+25юз22739 0.0 1006419
09:00+27зюз44654 0.0 1007953
12:00+28з54639 0.0 1007863
15:00+29з55630 0.0 1006834
18:00+27зсз447219 0.0 1006778
21:00+26з227815 0.0 1007334